sat.trackr.live / text

‹ back to catalog

STARLINK-36325

NORAD 67861 · 2026-034M

PAYLOAD ACTIVE UNKNOWN

§ Identity

Operator
Country
US
Launch date
2026-02-20
Launch site
AFETR
Launch vehicle
Mass (kg)
RCS (m²)

Purposes: comms

External: N2YO · Heavens-Above · Gunter

§ Orbital elements

Epoch: 2026-09-19T22:51:43.962624Z

Period
93.85 min
Inclination
53.1602°
Eccentricity
0.0001433
Mean motion
15.34394462 rev/d
Perigee alt
461.7 km
Apogee alt
463.7 km
Semi-major
6,840.9 km
B*
3.9904e-4
RAAN
20.1104°
Arg perigee
70.4130°
Mean anomaly
289.7027°
Rev number
3,380

§ Raw data

STARLINK-363251 67861U 26034M   26262.95259216  .00013127  00000+0  39904-3 0  99912 67861  53.1602  20.1104 0001433  70.4130 289.7027 15.34394462 33801

JSON: /api/v1/satellites/67861 · /tle

For live sub-satellite position, see the globe view (requires WebGL).

§ Visibility from observer

Set your observer location to see the next 7 days of passes ≥ 10°. The values pass through the URL so the page stays shareable.

No JS? Fill the form by hand. The geolocation button needs JavaScript.